STARLINK-5436, 54795

Orbit data source: Space-Track

STARLINK-5436, 54795 is a payload satellite owned by SpaceX/Seattle (US) in LEO that was launched on Sat, 17 Dec 2022 UTC via an FALCON 9 launch vehicle from the Air Force Eastern Test Range (AFETR). Payload-class satellites include a variety of spacecraft equipped with specific instruments for various scientific and technological missions. These include communications satellites like Starlink; space stations such as the ISS; scientific satellites like the Hubble; Earth observation satellites from companies like Planet Labs, Umbra, and HawkEye 360; GPS; miniature CubeSats for education and research; and military/defense satellites.

Loading next visibility...
Identifier
54795, 2022-175AP
Orbit
LEO
Last TLE update
12 hours ago
Origin
Manufacturer
SpaceX/Seattle
Mission
Operational Commercial Communications
Bus & Motor
STARLINK, Unknown motor
Mass
305 kg wet, ~290 kg dry
Launch date (UTC)
2022-12-17 (2 years ago)
Launch vehicle
FALCON 9
Launch site
Air Force Eastern Test Range (AFETR)
Object type
Payload
Rocket body
Debris
Shape & HBR
Box + 1 Pan, 8.86 m
Radar Cross Section
13.562 m², Large (>1 m²)

Expand to show TLE details & history

TLE from 12 hours ago
0 STARLINK-5436
1 54795U 22175AP  25130.78502068  .00000398  00000-0  43122-4 0  9990
2 54795  53.2183 308.7376 0001375  91.5608 268.5542 15.08833073134405
Epoch: 2025-05-10T18:50Z
Definitive object data (Epoch: 2025-05-10T18:50:25.786Z)
Latitude
-0.00001°
Longitude
157.30832°
Altitude
540.686 km
Speed
7.593 km/s
True Right ascension
20h 34m 57s
True Declination
0° 00' 00"
Sunlit
Object was in daylight at TLE epoch
Visualization TLE readout
Latitude
-8.36121°
Longitude
-18.65722°
Altitude
542.243 km
Speed
7.592 km/s
Apparent Right ascension
06h 33m 38s
Apparent Declination
-30° 20' 40"
Sunlit
Object is in daylight
Visualization observer readout
Local Sidereal Time
15:05:17
Azimuth
266.034° W
Elevation
-46.962°
Doppler factor
1
Orbital elements
Apogee altitude
540.961 km
Perigee altitude
539.058 km
Semi-major axis
6,918.146 km
Eccentricity
0.0001375
Inclination
53.2183°
RAAN
308.7376°
Arg. of periapsis
91.5608°
True anomaly
268.53845°
Mean anomaly
268.5542°
Eccentric anomaly
268.54632°
Mean motion
3.77189 °/min
BSTAR
0.000043122
Orbital period
95.44 mins
Loading maneuver chart data...
Loading SW <> Apogee altitude chart data...
Loading historical data...
Loading historical data...
Loading historical data...
Loading historical data...
Loading historical data...
Loading historical data...
Loading historical data...

STARLINK-5436 Visibility forecast

Observer location: undefined°, undefined°

Span
Click to sort rows by Start time (UTC) header in descending order
Start Az.
Max El. time (UTC)
Max El. Az.
Max El.
End time (UTC)
End Az.
7 mins2025-05-11 14:04:31.119Z208.59° SW2025-05-11 14:08:31.119Z109.593° ESE36.214°2025-05-11 14:11:31.119Z61.058° ENE
5 mins2025-05-11 15:45:31.119Z287.23° WNW2025-05-11 15:47:31.119Z331.463° NNW25.23°2025-05-11 15:50:31.119Z28.334° NE
6 mins2025-05-11 20:46:31.119Z328.386° NNW2025-05-11 20:48:31.119Z17.576° NNE36.544°2025-05-11 20:52:31.119Z110.117° ESE
4 mins2025-05-11 22:26:31.119Z261.173° W2025-05-11 22:27:31.119Z240.86° WSW20.875°2025-05-11 22:30:31.119Z184.756° SSW
|